Theta_e
323 323 323 324 324 325 325 324 323 325 329 328 328 328 325 324 324 327 323 322 325 326 326 326 327 327 326 325 325 327 326 323
321 321 322 324 325 325 324 322 323 324 328 327 328 325 325 325 325 324 327 324 324 326 328 328 329 327 327 329 329 327 325 323
320 320 321 323 322 323 322 321 322 323 328 328 328 326 326 325 325 323 325 325 323 327 327 326 324 322 321 325 328 326 324 323
320 321 323 323 323 320 320 320 322 326 327 328 329 329 328 327 326 327 321 324 326 326 327 324 320 320 305 309 319 326 325 325
321 322 323 322 320 319 318 320 322 327 327 329 330 328 326 327 327 322 323 324 327 325 324 320 317 313 302 303 309 325 326 324
321 322 322 321 319 318 319 320 320 324 327 327 326 326 324 325 326 324 324 322 322 322 324 320 317 313 303 302 312 325 324 324
321 324 323 319 319 319 319 318 319 320 325 323 324 325 323 326 326 323 323 323 323 322 324 320 317 313 304 301 319 324 324 324
324 324 322 319 319 318 318 316 317 318 325 324 325 325 326 326 327 323 323 324 325 328 325 322 315 315 305 301 318 326 323 322
325 324 321 319 319 318 316 316 316 320 326 326 325 325 327 326 325 324 325 325 325 324 323 321 320 317 311 302 309 325 324 322
325 323 321 321 319 319 317 315 318 322 324 326 327 327 330 328 324 324 325 324 322 321 321 320 321 318 309 302 302 314 316 322
326 323 320 320 319 318 317 316 319 322 323 326 326 326 326 325 324 323 324 323 323 322 321 320 318 318 313 304 304 310 310 320
325 323 320 319 319 319 319 319 320 322 325 325 325 326 324 324 324 324 324 323 323 323 322 320 318 318 318 317 314 314 307 309
324 323 321 320 320 318 321 319 319 322 325 325 323 326 325 323 319 316 321 319 326 326 325 323 320 318 320 315 317 320 319 313
323 325 322 321 321 320 321 320 319 322 325 325 324 325 326 324 315 311 298 298 302 309 310 319 322 313 304 305 306 305 303 303
320 324 325 322 321 320 321 321 320 322 323 324 323 322 324 322 319 315 310 308 301 297 301 307 309 308 302 302 300 301 300 305
319 324 326 323 322 321 321 321 320 322 321 310 322 320 322 321 321 321 317 313 311 310 303 304 301 301 302 300 296 302 311 310
317 320 328 327 323 321 322 321 320 323 321 320 320 320 321 320 322 320 321 317 316 313 307 304 297 295 296 296 298 320 320 319
315 315 323 327 325 326 323 321 320 323 321 312 314 319 317 320 319 322 320 320 319 314 311 313 304 304 308 308 309 320 320 321
315 320 321 323 319 327 330 320 321 322 322 315 313 318 317 315 318 315 319 322 321 319 315 313 301 316 316 316 316 318 321 321
315 316 320 321 316 324 322 316 318 321 323 321 317 319 317 316 314 315 315 316 322 321 319 313 294 319 318 318 319 319 321 320
Wind_Speed
16 15 13 13 10 10 8 8 8 7 8 8 6 8 7 6 5 6 5 4 4 4 1 5 5 4 2 3 2 2 4 4
16 13 12 12 11 9 9 8 8 7 10 9 8 7 7 6 5 6 5 5 4 2 5 6 5 5 4 3 0 5 4 5
15 14 12 12 10 10 9 7 7 8 9 10 8 7 7 6 5 4 3 5 3 5 5 6 7 6 5 4 4 6 5 5
15 15 14 13 12 11 8 8 7 12 11 9 8 9 7 6 5 5 4 3 6 5 5 8 6 5 5 9 5 5 5 5
16 15 15 12 12 10 9 8 8 12 11 10 9 8 6 5 5 6 5 5 5 5 7 7 6 5 6 7 6 5 5 5
14 13 12 13 9 10 8 9 8 11 8 10 10 10 7 6 6 6 4 3 4 4 6 6 6 4 6 8 6 6 5 6
14 14 13 11 13 10 11 8 8 7 10 10 10 10 7 7 6 6 4 4 3 3 5 6 6 4 5 7 5 5 5 7
13 16 15 14 12 10 10 8 8 7 13 10 11 9 9 9 7 6 3 3 4 5 6 5 7 5 4 6 4 5 7 6
14 17 15 14 14 11 9 8 8 7 12 12 9 8 8 7 7 4 4 5 6 6 7 5 6 5 4 7 6 5 6 6
14 14 13 13 14 11 9 9 8 7 11 11 10 10 8 7 8 4 6 6 7 6 6 5 4 4 4 6 10 8 7 7
10 14 13 11 13 11 9 9 7 7 11 13 13 10 8 6 7 7 5 5 6 6 5 5 4 3 3 6 6 11 10 7
5 15 14 12 12 10 9 8 7 8 12 14 9 12 8 6 5 5 6 5 5 5 6 6 4 4 3 3 4 8 12 9
4 11 13 13 13 9 8 9 7 8 14 12 8 10 10 6 3 1 4 4 9 7 7 8 8 5 5 6 6 7 7 9
5 12 13 14 14 12 8 10 8 10 13 10 8 9 8 6 6 4 10 8 6 11 13 9 5 9 15 12 10 11 14 14
16 11 15 14 14 13 10 10 8 11 12 11 8 8 8 6 6 6 6 5 9 6 12 15 12 15 15 14 12 14 15 9
14 13 6 15 14 14 13 8 9 11 9 13 9 6 7 6 6 8 6 8 5 1 8 2 15 18 18 15 13 11 4 2
15 13 14 4 14 14 13 12 12 13 10 8 7 7 7 9 6 6 8 6 7 6 3 7 7 8 8 9 15 7 10 8
13 12 13 13 12 6 13 13 13 11 12 14 9 7 6 8 6 8 7 9 8 8 7 7 5 4 5 5 6 7 8 8
10 8 10 8 10 10 2 6 13 11 10 8 13 6 6 6 8 6 7 9 10 9 9 10 14 11 10 10 9 8 8 9
8 10 8 8 12 10 14 14 9 10 11 11 8 10 7 6 6 8 7 8 11 11 9 10 15 11 11 11 12 11 11 9
Wind_Direction
129 134 134 135 131 133 132 137 150 152 147 142 129 125 125 135 153 153 175 203 229 253 116 145 134 116 164 146 192 158 159 126
138 139 138 139 140 143 144 149 164 146 154 148 139 137 137 158 171 167 191 207 233 166 162 117 115 73 27 55 161 112 112 108
145 143 142 144 143 146 155 154 167 148 137 148 144 134 144 150 180 189 191 196 184 155 119 105 84 63 38 28 46 109 113 110
148 145 146 151 147 152 152 151 163 136 148 141 137 135 144 155 177 199 190 154 138 131 98 100 94 82 360 37 32 99 113 118
150 151 152 149 148 147 150 150 130 145 152 147 141 145 151 160 182 154 138 134 129 116 115 110 97 79 25 28 21 105 105 101
152 150 146 147 138 141 132 136 140 151 155 152 132 148 161 172 143 140 122 111 124 117 112 110 106 77 35 13 77 100 101 89
152 146 145 138 139 140 132 137 148 149 148 145 139 149 153 137 130 143 142 130 129 141 127 122 116 89 27 23 109 99 94 92
147 141 142 136 144 134 131 150 160 179 151 149 147 150 136 150 147 152 164 139 152 139 122 120 122 118 35 24 111 104 96 97
147 142 147 145 145 133 139 153 174 185 149 144 146 144 128 125 133 147 130 120 111 102 115 122 115 125 66 63 105 108 116 111
147 138 144 144 144 136 143 159 194 163 138 134 127 132 135 139 144 132 125 128 118 118 118 101 97 99 85 70 89 107 120 117
151 142 142 145 146 145 141 187 173 151 132 134 141 136 137 144 133 132 137 137 139 141 134 133 135 118 98 88 79 126 116 104
150 148 148 146 152 148 152 174 169 140 133 145 141 137 141 151 147 151 146 149 156 152 152 147 145 138 143 120 110 105 99 95
152 163 155 153 154 155 153 172 158 136 146 151 146 146 153 164 112 176 170 199 180 168 167 162 155 162 184 165 142 130 131 132
11 166 158 158 156 164 161 173 149 148 148 158 160 151 163 156 141 92 29 22 192 164 159 159 163 159 156 163 144 133 134 143
6 351 164 162 159 168 170 172 149 159 153 158 161 155 157 157 154 143 129 0 50 41 170 163 162 160 163 161 146 149 159 134
356 357 278 164 167 171 174 166 152 161 152 159 162 159 168 161 168 167 156 154 152 159 41 143 156 162 165 161 136 120 139 302
2 350 1 7 178 177 176 172 159 162 158 169 164 174 171 183 175 166 170 165 161 150 103 56 52 77 109 151 164 162 178 193
352 351 13 16 17 324 177 176 161 163 172 168 170 173 179 192 186 185 169 175 165 163 165 166 146 114 159 181 201 182 187 199
342 360 16 7 357 347 289 175 170 167 173 165 179 167 182 178 196 186 183 173 181 174 184 175 172 174 184 190 196 204 199 201
356 350 7 1 3 11 44 19 342 181 172 179 178 188 192 194 189 190 189 180 185 187 182 180 178 188 187 192 200 207 212 210